• MPC Preparation (Info)

  • MPEC 2020-C10 : 2020 BM14

    The following Minor Planet Electronic Circular may be linked-to from your own Web pages, but must not otherwise be redistributed electronically.

    A form allowing access to any MPEC is at the bottom of this page.


    Read MPEC 2020-C09 Read MPEC 2020-C11


    M.P.E.C. 2020-C10                              Issued 2020 February 1, 16:59 UT
    
         The Minor Planet Electronic Circulars contain information on unusual
             minor planets and routine data on comets.  They are published
        on behalf of Division F of the International Astronomical Union by the
              Minor Planet Center, Smithsonian Astrophysical Observatory,
                              Cambridge, MA 02138, U.S.A.
    
                 Prepared using the Tamkin Foundation Computer Network
    
                                  MPC@CFA.HARVARD.EDU
                URL https://www.minorplanetcenter.net/    ISSN 1523-6714
    
                                    2020 BM14                                
    
    
    Observations:
         K20B14M* C2020 01 28.38892608 40 25.528+58 49 55.33         21.41wUEC010F51
         K20B14M  C2020 01 28.40127508 40 22.851+58 49 12.27         21.31wUEC010F51
         K20B14M  C2020 01 28.42603708 40 17.481+58 47 45.71         21.49wUEC010F51
         K20B14M KC2020 01 29.92521008 35 47.22 +57 13 24.1          21.3 GVEC010L01
         K20B14M KC2020 01 29.92875408 35 46.52 +57 13 10.9          21.3 GVEC010L01
         K20B14M KC2020 01 29.93230008 35 45.79 +57 12 57.0          21.4 GVEC010L01
         K20B14M  C2020 01 31.17343 08 32 08.70 +55 46 48.2          20.7 GVEC010I52
         K20B14M  C2020 01 31.17593 08 32 08.20 +55 46 37.6          21.1 GVEC010I52
         K20B14M  C2020 01 31.17843 08 32 07.68 +55 46 27.6          20.9 GVEC010I52
         K20B14M  C2020 01 31.18093 08 32 07.21 +55 46 16.5          20.0 GVEC010I52
         K20B14M !C2020 01 31.31979 08 31 39.38 +55 36 17.4          21.1 RtEC010673
         K20B14M !C2020 01 31.33067 08 31 37.16 +55 35 29.4                tEC010673
         K20B14M  C2020 01 31.76065 08 30 26.22 +55 02 55.0          20.5 VVEC010033
         K20B14M  C2020 01 31.76400 08 30 25.66 +55 02 40.0          20.8 VVEC010033
         K20B14M  C2020 01 31.76735 08 30 25.08 +55 02 25.6          20.7 VVEC010033
         K20B14M  C2020 01 31.77076 08 30 24.44 +55 02 10.9          20.3 VVEC010033
         K20B14M HC2020 01 31.88102 08 30 04.03 +54 54 05.0                VEC010204
         K20B14M HC2020 01 31.90055 08 30 00.18 +54 52 37.2          21   GVEC010204
    
    Observer details:
    033 Karl Schwarzschild Observatory, Tautenburg.  Observers S. Melnikov, C. 
       Hoegner, B. Stecklum.  Measurer B. Stecklum.  1.34-m f/3 Schmidt + CCD.
    204 Schiaparelli Observatory.  Observer L. Buzzi.  0.84-m f/3.5 reflector + CCD.
    673 Table Mountain Observatory, Wrightwood.  Observer J. Pittichova.  1.0-m 
       f/15 reflector + CCD.
    F51 Pan-STARRS 1, Haleakala.  Observers J. Bulger, T. Lowe, A. Schultz, M. 
       Willman.  Measurers K. Chambers, S. Chastel, T. de Boer, L. Denneau, J. 
       Fairlamb, H. Flewelling, M. Huber, C.-C. Lin, E. Magnier, Y. Ramanjooloo, R. 
       Wainscoat, R. Weryk.  1.8-m Ritchey-Chretien + CCD.
    I52 Steward Observatory, Mt. Lemmon Station.  Observer R. A. Kowalski.  
        Measurers E. J. Christensen, G. A. Farneth, D. C. Fuls, A. R. Gibbs, A. D. 
       Grauer, H. Groeller, R. A. Kowalski, S. M. Larson, G. J. Leonard, T. A. 
       Pruyne, D. Rankin, R. L. Seaman, F. C. Shelly, K. W. Wierzchos.  1.0-m 
       reflector + CCD.
    L01 Visnjan Observatory, Tican.  Observer K. Korlevic.  1.0-m f/2.9 reflector + 
       CCD.
    
    Orbital elements:
    2020 BM14                                                Earth MOID = 0.1094 AU
    Epoch 2020 May 31.0 TT = JDT 2459000.5                  Bell
    M  42.75252              (2000.0)            P               Q
    n   0.46041739     Peri.  190.54671     -0.90244428     -0.39204845
    a   1.6609947      Node   324.63079     +0.41430959     -0.67619001
    e   0.3415141      Incl.   17.97002     +0.11807580     -0.62375082
    P   2.14           H   23.2           G   0.15           U   7
    Residuals in seconds of arc
    200128 F51  0.0   0.0     200131 I52  0.1+  0.1+    200131 033  0.3-  0.1+
    200128 F51  0.1-  0.1-    200131 I52  0.0   0.1-    200131 033  0.1+  0.2-
    200128 F51  0.0   0.1+    200131 I52  0.2-  0.4+    200131 033  0.3+  0.0
    200129 L01  0.1+  0.7-    200131 I52  0.0   0.2-    200131 033  0.1+  0.3+
    200129 L01  0.3+  0.1+    200131 673  0.4-  0.1+    200131 204  0.1+  0.1-
    200129 L01  0.3+  0.2+    200131 673  0.2-  0.0     200131 204  0.0   0.2-
    
    Ephemeris:
    2020 BM14                a,e,i = 1.66, 0.34, 18                  q = 1.0937
    Date    TT    R. A. (2000) Decl.     Delta      r    Elong.  Phase     V
    2020 01 02    09 30 02.0 +68 25 57   0.3316  1.2168   128.3    39.4    22.8
    ...
    2020 01 17    09 12 40.5 +66 03 33   0.2441  1.1640   133.0    38.1    22.0
    ...
    2020 01 25    08 50 41.8 +61 45 13   0.2018  1.1408   137.2    35.9    21.5
    ...
    2020 01 31    08 32 35.6 +55 59 13   0.1736  1.1261   141.5    33.0    21.0
    2020 02 01    08 29 41.4 +54 44 58   0.1693  1.1239   142.3    32.4    21.0
    2020 02 02    08 26 51.3 +53 25 24   0.1651  1.1218   143.1    31.8    20.9
    ...
    2020 02 08    08 11 41.4 +43 26 35   0.1435  1.1105   148.0    28.1    20.5
    ...
    2020 02 16    07 57 33.8 +24 52 11   0.1276  1.0999   149.8    26.9    20.1
    ...
    2020 03 02    07 49 52.8 -11 24 30   0.1482  1.0940   131.0    43.1    20.9
    
    A. U. Tomatic                (C) Copyright 2020 MPC           M.P.E.C. 2020-C10
    


    Read MPEC 2020-C09 Read MPEC 2020-C11


    MPEC number:

    Enter an MPEC number in one of the following forms:

    • 1997-B01 (the full form)
    • J97B01 (the packed version of the full form)
    • B01 (the abbreviated form)